When you browse on this site, cookies collect data to enhance your experience and personalize the content and advertising you see.
Visit our Privacy Policy to learn more. By continuing to use the site, you agree to this use of cookies and data.
  • en Suisse
  • Liste des pays
  • À 7 jours
  • Température de l'eau
  • Carte météo
  • Widgets météo
  • user-avatar
    Se connecter

    Météo par heure à Kaposvár

    Ce jour, 25 Mai, Lundi

    Heure Température Précipitation Vent Pression Humidité
    00:00 +11°C° 0 mm 3 m/s 755 mmHg 69%
    01:00 +11°C° 0 mm 3 m/s 755 mmHg 69%
    02:00 +10°C° 0 mm 3 m/s 755 mmHg 70%
    03:00 +10°C° 0 mm 3 m/s 755 mmHg 72%
    04:00 +9°C° 0 mm 3 m/s 755 mmHg 73%
    05:00 +10°C° 0 mm 3 m/s 755 mmHg 74%
    06:00 +11°C° 0 mm 3 m/s 755 mmHg 74%
    07:00 +12°C° 0 mm 4 m/s 755 mmHg 75%
    08:00 +13°C° 0.2 mm 4 m/s 755 mmHg 76%
    09:00 +13°C° 0.2 mm 5 m/s 755 mmHg 77%
    10:00 +13°C° 0.2 mm 5 m/s 755 mmHg 78%
    11:00 +14°C° 0.5 mm 5 m/s 754 mmHg 78%
    12:00 +14°C° 0.5 mm 5 m/s 754 mmHg 77%
    13:00 +14°C° 0.5 mm 5 m/s 753 mmHg 76%
    14:00 +15°C° 0.1 mm 5 m/s 753 mmHg 74%
    15:00 +15°C° 0.1 mm 5 m/s 753 mmHg 72%
    16:00 +15°C° 0.1 mm 5 m/s 753 mmHg 70%
    17:00 +14°C° 0.1 mm 5 m/s 753 mmHg 73%
    18:00 +14°C° 0.1 mm 4 m/s 753 mmHg 76%
    19:00 +13°C° 0.1 mm 4 m/s 753 mmHg 80%
    20:00 +12°C° 0 mm 4 m/s 753 mmHg 80%
    21:00 +11°C° 0 mm 4 m/s 753 mmHg 81%
    22:00 +10°C° 0 mm 4 m/s 754 mmHg 82%
    23:00 +9°C° 0 mm 5 m/s 754 mmHg 81%

    Demain, 26 Mai, Mardi

    Heure Température Précipitation Vent Pression Humidité
    00:00 +9°C° 0 mm 5 m/s 754 mmHg 81%
    01:00 +9°C° 0 mm 5 m/s 754 mmHg 81%
    02:00 +9°C° 0 mm 5 m/s 754 mmHg 82%
    03:00 +8°C° 0 mm 5 m/s 754 mmHg 84%
    04:00 +8°C° 0 mm 5 m/s 754 mmHg 85%
    05:00 +9°C° 0 mm 5 m/s 755 mmHg 81%
    06:00 +10°C° 0 mm 6 m/s 755 mmHg 78%
    07:00 +11°C° 0 mm 7 m/s 755 mmHg 74%
    08:00 +14°C° 0 mm 7 m/s 755 mmHg 70%
    09:00 +15°C° 0 mm 7 m/s 755 mmHg 66%
    10:00 +16°C° 0 mm 8 m/s 755 mmHg 62%
    11:00 +16°C° 0.4 mm 8 m/s 755 mmHg 63%
    12:00 +17°C° 0.4 mm 8 m/s 754 mmHg 64%
    13:00 +17°C° 0.4 mm 8 m/s 754 mmHg 65%
    14:00 +17°C° 0.1 mm 7 m/s 754 mmHg 64%
    15:00 +17°C° 0.1 mm 7 m/s 753 mmHg 63%
    16:00 +17°C° 0.1 mm 7 m/s 753 mmHg 63%
    17:00 +16°C° 0.1 mm 6 m/s 753 mmHg 66%
    18:00 +15°C° 0.1 mm 5 m/s 753 mmHg 70%
    19:00 +14°C° 0.1 mm 5 m/s 754 mmHg 74%
    20:00 +13°C° 0.1 mm 4 m/s 754 mmHg 76%
    21:00 +13°C° 0.1 mm 4 m/s 754 mmHg 78%
    22:00 +12°C° 0.1 mm 4 m/s 754 mmHg 80%
    23:00 +11°C° 0.1 mm 4 m/s 754 mmHg 81%

    Après-demain, 27 Mai, Mercredi

    Heure Température Précipitation Vent Pression Humidité
    00:00 +11°C° 0.1 mm 4 m/s 754 mmHg 82%
    01:00 +11°C° 0.1 mm 4 m/s 754 mmHg 83%
    02:00 +10°C° 0 mm 4 m/s 754 mmHg 84%
    03:00 +10°C° 0 mm 4 m/s 754 mmHg 85%
    04:00 +8°C° 0 mm 4 m/s 754 mmHg 86%
    05:00 +11°C° 0 mm 4 m/s 755 mmHg 82%
    06:00 +12°C° 0 mm 5 m/s 755 mmHg 79%
    07:00 +13°C° 0 mm 5 m/s 755 mmHg 76%
    08:00 +15°C° 0 mm 5 m/s 755 mmHg 71%
    09:00 +16°C° 0 mm 6 m/s 755 mmHg 66%
    10:00 +19°C° 0 mm 6 m/s 755 mmHg 61%
    11:00 +19°C° 0.1 mm 6 m/s 755 mmHg 59%
    12:00 +20°C° 0.1 mm 6 m/s 755 mmHg 58%
    13:00 +21°C° 0.1 mm 6 m/s 754 mmHg 56%
    14:00 +20°C° 0.2 mm 6 m/s 754 mmHg 58%
    15:00 +20°C° 0.2 mm 6 m/s 754 mmHg 61%
    16:00 +20°C° 0.2 mm 6 m/s 753 mmHg 63%
    17:00 +19°C° 0.1 mm 5 m/s 753 mmHg 68%
    18:00 +18°C° 0.1 mm 4 m/s 753 mmHg 73%
    19:00 +16°C° 0.1 mm 3 m/s 753 mmHg 78%
    20:00 +16°C° 0 mm 3 m/s 753 mmHg 79%
    21:00 +14°C° 0 mm 3 m/s 754 mmHg 81%
    22:00 +13°C° 0 mm 3 m/s 754 mmHg 82%
    23:00 +12°C° 0 mm 3 m/s 754 mmHg 83%

    28 Mai, Jeudi

    Heure Température Précipitation Vent Pression Humidité
    00:00 +12°C° 0 mm 3 m/s 753 mmHg 84%
    01:00 +12°C° 0 mm 3 m/s 753 mmHg 85%
    02:00 +12°C° 0 mm 2 m/s 753 mmHg 86%
    03:00 +12°C° 0 mm 2 m/s 753 mmHg 87%
    04:00 +10°C° 0 mm 2 m/s 753 mmHg 88%
    05:00 +12°C° 0 mm 3 m/s 753 mmHg 82%
    06:00 +13°C° 0 mm 3 m/s 753 mmHg 77%
    07:00 +15°C° 0 mm 4 m/s 753 mmHg 71%
    08:00 +17°C° 0 mm 4 m/s 753 mmHg 65%
    09:00 +19°C° 0 mm 5 m/s 752 mmHg 59%
    10:00 +20°C° 0 mm 5 m/s 752 mmHg 53%
    11:00 +21°C° 0.1 mm 5 m/s 752 mmHg 53%
    12:00 +21°C° 0.1 mm 5 m/s 751 mmHg 53%
    13:00 +21°C° 0.1 mm 5 m/s 751 mmHg 53%
    14:00 +21°C° 0.2 mm 5 m/s 750 mmHg 56%
    15:00 +21°C° 0.2 mm 5 m/s 750 mmHg 59%
    16:00 +20°C° 0.2 mm 6 m/s 749 mmHg 62%
    17:00 +19°C° 0.1 mm 5 m/s 750 mmHg 66%
    18:00 +18°C° 0.1 mm 4 m/s 750 mmHg 70%
    19:00 +16°C° 0.1 mm 3 m/s 750 mmHg 74%
    20:00 +16°C° 0 mm 3 m/s 750 mmHg 70%
    21:00 +14°C° 0 mm 3 m/s 750 mmHg 67%
    22:00 +13°C° 0 mm 3 m/s 750 mmHg 64%
    23:00 +13°C° 0 mm 3 m/s 751 mmHg 65%

    29 Mai, Vendredi

    Heure Température Précipitation Vent Pression Humidité
    00:00 +12°C° 0 mm 4 m/s 751 mmHg 65%
    01:00 +11°C° 0 mm 4 m/s 751 mmHg 66%
    02:00 +10°C° 0 mm 3 m/s 750 mmHg 70%
    03:00 +9°C° 0 mm 3 m/s 750 mmHg 73%
    04:00 +8°C° 0 mm 3 m/s 750 mmHg 77%
    05:00 +10°C° 0 mm 3 m/s 751 mmHg 73%
    06:00 +11°C° 0 mm 4 m/s 751 mmHg 70%
    07:00 +13°C° 0 mm 4 m/s 751 mmHg 67%
    08:00 +14°C° 0 mm 4 m/s 751 mmHg 63%
    09:00 +17°C° 0 mm 4 m/s 751 mmHg 59%
    10:00 +18°C° 0 mm 4 m/s 751 mmHg 56%
    11:00 +19°C° 0.1 mm 4 m/s 750 mmHg 54%
    12:00 +19°C° 0.1 mm 4 m/s 750 mmHg 53%
    13:00 +20°C° 0.1 mm 4 m/s 750 mmHg 52%
    14:00 +20°C° 0 mm 4 m/s 749 mmHg 52%
    15:00 +20°C° 0 mm 4 m/s 749 mmHg 51%
    16:00 +20°C° 0 mm 4 m/s 749 mmHg 51%
    17:00 +19°C° 0 mm 3 m/s 749 mmHg 59%
    18:00 +17°C° 0 mm 3 m/s 749 mmHg 66%
    19:00 +16°C° 0 mm 2 m/s 749 mmHg 74%
    20:00 +15°C° 0 mm 2 m/s 749 mmHg 74%
    21:00 +14°C° 0 mm 2 m/s 750 mmHg 73%
    22:00 +12°C° 0 mm 2 m/s 750 mmHg 73%
    23:00 +12°C° 0 mm 2 m/s 750 mmHg 72%

    30 Mai, Samedi

    Heure Température Précipitation Vent Pression Humidité
    00:00 +10°C° 0 mm 2 m/s 750 mmHg 71%
    01:00 +9°C° 0 mm 2 m/s 751 mmHg 69%
    02:00 +9°C° 0 mm 2 m/s 751 mmHg 71%
    03:00 +9°C° 0 mm 2 m/s 750 mmHg 72%
    04:00 +8°C° 0 mm 2 m/s 750 mmHg 74%
    05:00 +9°C° 0 mm 2 m/s 751 mmHg 72%
    06:00 +12°C° 0 mm 2 m/s 751 mmHg 71%
    07:00 +13°C° 0 mm 2 m/s 751 mmHg 70%
    08:00 +15°C° 0 mm 2 m/s 751 mmHg 64%
    09:00 +16°C° 0 mm 2 m/s 751 mmHg 59%
    10:00 +18°C° 0 mm 2 m/s 751 mmHg 53%
    11:00 +19°C° 0 mm 2 m/s 751 mmHg 50%
    12:00 +19°C° 0 mm 2 m/s 750 mmHg 47%
    13:00 +20°C° 0 mm 2 m/s 750 mmHg 43%
    14:00 +20°C° 0 mm 2 m/s 750 mmHg 44%
    15:00 +20°C° 0 mm 2 m/s 749 mmHg 44%
    16:00 +20°C° 0 mm 2 m/s 749 mmHg 44%
    17:00 +18°C° 0 mm 2 m/s 749 mmHg 52%
    18:00 +17°C° 0 mm 2 m/s 749 mmHg 59%
    19:00 +15°C° 0 mm 1 m/s 749 mmHg 67%
    20:00 +14°C° 0 mm 1 m/s 749 mmHg 69%
    21:00 +13°C° 0 mm 1 m/s 749 mmHg 72%
    22:00 +12°C° 0 mm 1 m/s 749 mmHg 75%
    23:00 +10°C° 0 mm 0 m/s 749 mmHg 75%
    Voir plus